Regional Weather Roundup
Issued by NWS Sterling, VA

Home | Current Version | Previous Version | Graphics & Text | Print | Product List | Glossary On
Versions: 1 2 3 4 5 6 7 8 9 10 11 12 13 14 15 16 17 18 19 20 21 22 23 24 25 26 27
000
ASUS41 KLWX 232111
RWRLWX

REGIONAL WEATHER ROUNDUP
NATIONAL WEATHER SERVICE BALTIMORE MD/WASHINGTON DC
500 PM EDT TUE MAY 23 2017

Note: "FAIR" indicates few or no clouds below 12,000 feet
with no significant weather and/or obstructions to visibility.
 TC=TEMPERATURE CELSIUS

 * =Non NWS site. Station does not report precipitation (e.g. rain,
    snow, etc.), thunder, or fog.

DCZ001-MDZ009-015-VAZ040>042-051-053>054-232200-
WASHINGTON METRO

CITY           SKY/WX    TMP DP  RH WIND       PRES   REMARKS
WASHINGTON NAT CLOUDY    67  60  78 E10       29.84F
DULLES         CLOUDY    64  56  75 N6        29.84F
ANDREWS AFB    CLOUDY    64  58  80 E8        29.83F
FT BELVOIR     CLOUDY    66  59  77 E3        29.83F
QUANTICO       CLOUDY    67  61  81 SE7       29.83F
COLLEGE PARK*  CLOUDY    64  58  80 E6        29.84F
LEESBURG*      CLOUDY    63  59  88 NE5       29.85F
MANASSAS*      CLOUDY    65  58  78 E6        29.83F
GAITHERSBURG*  CLOUDY    64  58  80 VRB3      29.85F

$$

MDZ006>007-011-014-232200-
BALTIMORE METRO

CITY           SKY/WX    TMP DP  RH WIND       PRES   REMARKS
BWI AIRPORT    CLOUDY    65  59  81 E6        29.84F
MD SCIENCE CTR   N/A     67  59  75 MISG      29.84F
MARTIN STATE   CLOUDY    66  63  88 CALM      29.86F
ANNAPOLIS      CLOUDY    66  61  84 SE3       29.84F
FORT MEADE*    CLOUDY    63  57  82 E6        29.87F

$$

MDZ012-015-019>023-232200-
MARYLAND EASTERN SHORE

CITY           SKY/WX    TMP DP  RH WIND       PRES   REMARKS
OCEAN CITY     CLOUDY    59  55  87 E8        29.85F
SALISBURY      CLOUDY    63  56  78 NE10      29.83F
BAY BRIDGE AP* CLOUDY    66  55  68 SE9       29.84F
CAMBRIDGE*     MOSUNNY   63  54  72 E5        29.84F

$$

MDZ017>025-232200-
SOUTHERN MARYLAND

CITY           SKY/WX    TMP DP  RH WIND       PRES   REMARKS
PATUXENT RIVER LGT RAIN  62  61  96 E9        29.83F
ST INIGOES     CLOUDY    63  58  83 NE6       29.82F
LEONARDTOWN*   CLOUDY    61  57  88 NE3       29.85F

$$

MDZ003>005-232200-
NORTH CENTRAL MARYLAND

CITY           SKY/WX    TMP DP  RH WIND       PRES   REMARKS
FREDERICK*     CLOUDY    64  57  77 CALM      29.87F
HAGERSTOWN APT CLOUDY    66  49  54 E6        29.84F
WESTMINSTER*   LGT RAIN  63  57  82 CALM      29.86F

$$

MDZ501>502-232200-
WESTERN MARYLAND

CITY           SKY/WX    TMP DP  RH WIND       PRES   REMARKS
OAKLAND*       CLOUDY    52  46  82 SE14G22   29.85S
CUMBERLAND*    PTSUNNY   64  50  59 SE5       29.88S

$$

VAZ025>031-232200-
SHENANDOAH VALLEY

CITY           SKY/WX    TMP DP  RH WIND       PRES   REMARKS
WINCHESTER*    CLOUDY    61  54  77 E3        29.85F
FRONT ROYAL*   CLOUDY    59  57  94 NE5       29.83F
LURAY*         DRIZZLE   61  57  88 N5        29.83F
NEW MARKET*    CLOUDY    60  54  80 NE7       29.83F
STAUNTON*      DRIZZLE   60  52  76 NE5       29.85F
WAYNESBORO*    CLOUDY    58  56  94 NE5       29.84F

$$

WVZ021-048>050-054>055-232200-
EASTERN WEST VIRGINIA PANHANDLE

CITY           SKY/WX    TMP DP  RH WIND       PRES   REMARKS
MARTINSBURG    CLOUDY    64  53  67 E3        29.84F
PETERSBURG*    CLOUDY    65  53  66 CALM      29.84F

$$

VAZ036>039-050-232200-
CENTRAL FOOTHILLS

CITY           SKY/WX    TMP DP  RH WIND       PRES   REMARKS
CHARLOTTESVILL CLOUDY    62  58  86 N6        29.82F FOG
CULPEPER*      CLOUDY    64  60  88 CALM      29.83F
ORANGE*        DRIZZLE   59  59 100 NE3       29.82F
GORDONSVILLE*  CLOUDY    60  60  98 NE5       29.81F FOG
WARRENTON*     LGT RAIN  65  57  75 NE3       29.82F

$$

VAZ055>057-232200-
NORTH AND CENTRAL PIEDMONT

CITY           SKY/WX    TMP DP  RH WIND       PRES   REMARKS
FREDERICKSBRG* LGT RAIN  64  64  99 E3        29.82F
STAFFORD*      DRIZZLE   64  63  99 E3        29.87F

$$

NCZ024-NYZ072-PAZ021-071-VAZ022-071-232200-
OTHER REGIONAL OBSERVATIONS

CITY           SKY/WX    TMP DP  RH WIND       PRES   REMARKS
NEW YORK CITY  CLOUDY    68  46  45 CALM      29.88F
PHILADELPHIA   CLOUDY    66  51  58 VRB6      29.86F
PITTSBURGH     CLOUDY    72  50  45 E9        29.77F
ROANOKE        RAIN      59  59 100 NE7       29.81F FOG
RICHMOND       RAIN      63  62  97 NE9       29.79F FOG
RALEIGH        LGT RAIN  69  67  93 NE6       29.71F FOG

$$

ANZ530>537-232200-
MARINE OBSERVATIONS

STATION/POSITION TIME  TEMP    WIND        PRES
                       AIR SEA DIR/SP/G
                 (UTC) (F)     (DEG/KT/KT) (MB)
THOMAS PT LIGHT  2100   64 65  110/ 11/ 11   N/A
BALT KEY BRIDGE  2036   64     120/  5/  6 1010.7F
COVE POINT       2042   62     110/  9/ 13 1011.0F
LEWISETTA        2042   63 69   80/ 10/ 13 1009.8F
SOLOMONS ISLAND  2048   62 67   80/ 10/ 12   N/A
PINEY POINT      2036           80/  6/  7   N/A

$$





USA.gov is the U.S. government's official web portal to all federal, state and local government web resources and services.